Location: Dessau
(51.7984°N, 12.2168°E)
Time: 12:32:51
(UTC+01:00)

ISS - Pass Details

Date: 08 January 2018
Orbit: 402 x 407 km, 51.6° (Epoch: 18 January)

Event Time Altitude Azimuth Distance (km) Brightness Sun altitude
Exits shadow 06:38:52 28° 270° (W) 796 -2.9 -14.2°
Maximum altitude 06:40:24 66° 195° (SSW) 447 -3.7 -13.9°
Drops below altitude 10° 06:43:40 10° 113° (ESE) 1,468 0.5 -13.5°
Sets 06:45:46 0° 110° (ESE) 2,328 2.1 -13.2°
